| time (UTC) | temp F | wind direction | speed MPH | gust MPH | rain 1hr in | rain 24hr in | rain mn in | humidity % | barometer mb |
| 20260504023707 | 41 | 66 | 1.0 | 2.0 | 0.00 | 0.00 | 0.00 | 77 | 1012.9 |
| 20260504023205 | 42 | 17 | 0.0 | 3.0 | 0.00 | 0.00 | 0.00 | 76 | 1013.1 |
| 20260504022723 | 42 | 348 | 1.0 | 4.0 | 0.00 | 0.00 | 0.00 | 76 | 1013.1 |
| 20260504022221 | 43 | 44 | 1.0 | 4.0 | 0.00 | 0.00 | 0.00 | 76 | 1012.9 |
| 20260504021718 | 43 | 256 | 2.0 | 4.0 | 0.00 | 0.00 | 0.00 | 74 | 1013.0 |
| 20260504021216 | 43 | 297 | 0.0 | 2.0 | 0.00 | 0.00 | 0.00 | 72 | 1013.1 |
| 20260504020714 | 44 | 272 | 1.0 | 4.0 | 0.00 | 0.00 | 0.00 | 73 | 1013.1 |
| 20260504020211 | 44 | 310 | 1.0 | 5.0 | 0.00 | 0.00 | 0.00 | 72 | 1013.0 |
| 20260504015730 | 45 | 240 | 2.0 | 5.0 | 0.00 | 0.00 | 0.00 | 72 | 1013.3 |
| 20260504015246 | 46 | 282 | 1.0 | 5.0 | 0.00 | 0.00 | 0.00 | 71 | 1013.4 |
| 20260504014723 | 46 | 246 | 0.0 | 2.0 | 0.00 | 0.00 | 0.00 | 69 | 1013.3 |
| 20260504014221 | 47 | 260 | 1.0 | 4.0 | 0.00 | 0.00 | 0.00 | 69 | 1013.4 |
| 20260504013722 | 47 | 240 | 1.0 | 6.0 | 0.00 | 0.00 | 0.00 | 68 | 1013.6 |
| 20260504013218 | 48 | 245 | 1.0 | 6.0 | 0.00 | 0.00 | 0.00 | 68 | 1013.7 |
| 20260504012716 | 49 | 80 | 1.0 | 5.0 | 0.00 | 0.00 | 0.00 | 64 | 1013.8 |
| 20260504012213 | 49 | 256 | 1.0 | 8.0 | 0.00 | 0.00 | 0.00 | 62 | 1013.7 |
| 20260504011732 | 50 | 165 | 1.0 | 8.0 | 0.00 | 0.00 | 0.00 | 55 | 1013.6 |
| 20260504011208 | 51 | 242 | 2.0 | 7.0 | 0.00 | 0.00 | 0.00 | 53 | 1013.5 |
| 20260504010726 | 52 | 158 | 1.0 | 5.0 | 0.00 | 0.00 | 0.00 | 50 | 1013.5 |
| 20260504010243 | 52 | 235 | 1.0 | 4.0 | 0.00 | 0.00 | 0.00 | 49 | 1013.4 |
| 20260504005721 | 52 | 282 | 1.0 | 4.0 | 0.00 | 0.00 | 0.00 | 46 | 1013.4 |
| 20260504005217 | 52 | 273 | 1.0 | 6.0 | 0.00 | 0.00 | 0.00 | 42 | 1013.5 |
| 20260504004714 | 52 | 180 | 2.0 | 6.0 | 0.00 | 0.00 | 0.00 | 45 | 1013.6 |
| 20260504004213 | 52 | 242 | 1.0 | 7.0 | 0.00 | 0.00 | 0.00 | 46 | 1013.5 |
| 20260504003712 | 53 | 198 | 3.0 | 7.0 | 0.00 | 0.00 | 0.00 | 46 | 1013.4 |
| 20260504003208 | 53 | 219 | 1.0 | 5.0 | 0.00 | 0.00 | 0.00 | 48 | 1013.5 |
| 20260504002726 | 53 | 192 | 2.0 | 6.0 | 0.00 | 0.00 | 0.00 | 46 | 1013.5 |
| 20260504002223 | 53 | 217 | 2.0 | 6.0 | 0.00 | 0.00 | 0.00 | 46 | 1013.7 |
| 20260504001721 | 54 | 201 | 2.0 | 6.0 | 0.00 | 0.00 | 0.00 | 46 | 1013.7 |
| 20260504001223 | 54 | 296 | 1.0 | 6.0 | 0.00 | 0.00 | 0.00 | 51 | 1013.6 |
| 20260504000722 | 54 | 265 | 1.0 | 5.0 | 0.00 | 0.00 | 0.00 | 49 | 1013.8 |
| 20260504000219 | 54 | 172 | 1.0 | 5.0 | 0.00 | 0.00 | 0.00 | 50 | 1014.0 |
| 20260503235717 | 54 | 299 | 1.0 | 5.0 | 0.00 | 0.00 | 0.00 | 50 | 1014.3 |
| 20260503235234 | 54 | 209 | 0.0 | 4.0 | 0.00 | 0.00 | 0.00 | 50 | 1014.3 |
| 20260503234711 | 54 | 236 | 1.0 | 3.0 | 0.00 | 0.00 | 0.00 | 47 | 1014.3 |
| 20260503234208 | 55 | 291 | 1.0 | 3.0 | 0.00 | 0.00 | 0.00 | 48 | 1014.5 |
| 20260503233746 | 55 | 34 | 1.0 | 4.0 | 0.00 | 0.00 | 0.00 | 47 | 1014.5 |
| 20260503233244 | 55 | 235 | 1.0 | 5.0 | 0.00 | 0.00 | 0.00 | 47 | 1014.5 |
| 20260503232721 | 55 | 291 | 1.0 | 5.0 | 0.00 | 0.00 | 0.00 | 48 | 1014.4 |
| 20260503232219 | 56 | 277 | 1.0 | 3.0 | 0.00 | 0.00 | 0.00 | 47 | 1014.6 |
| 20260503231716 | 56 | 242 | 1.0 | 4.0 | 0.00 | 0.00 | 0.00 | 46 | 1014.6 |
| 20260503231214 | 56 | 58 | 1.0 | 4.0 | 0.00 | 0.00 | 0.00 | 45 | 1014.7 |
| 20260503230712 | 57 | 86 | 1.0 | 4.0 | 0.00 | 0.00 | 0.00 | 44 | 1014.8 |
| 20260503230208 | 57 | 239 | 1.0 | 4.0 | 0.00 | 0.00 | 0.00 | 42 | 1014.8 |
| 20260503225747 | 58 | 138 | 1.0 | 4.0 | 0.00 | 0.00 | 0.00 | 42 | 1014.8 |
| 20260503225243 | 58 | 80 | 1.0 | 5.0 | 0.00 | 0.00 | 0.00 | 42 | 1014.8 |
| 20260503224741 | 58 | 255 | 1.0 | 3.0 | 0.00 | 0.00 | 0.00 | 40 | 1014.8 |
| 20260503224217 | 58 | 245 | 0.0 | 4.0 | 0.00 | 0.00 | 0.00 | 42 | 1014.8 |
| 20260503223735 | 58 | 260 | 1.0 | 5.0 | 0.00 | 0.00 | 0.00 | 42 | 1015.0 |
| 20260503223212 | 58 | 299 | 1.0 | 5.0 | 0.00 | 0.00 | 0.00 | 43 | 1015.0 |
| 20260503222709 | 59 | 288 | 1.0 | 4.0 | 0.00 | 0.00 | 0.00 | 42 | 1015.3 |
| 20260503222211 | 59 | 88 | 1.0 | 4.0 | 0.00 | 0.00 | 0.00 | 37 | 1015.2 |
| 20260503221708 | 58 | 221 | 1.0 | 7.0 | 0.00 | 0.00 | 0.00 | 40 | 1015.1 |
| 20260503221227 | 59 | 260 | 2.0 | 7.0 | 0.00 | 0.00 | 0.00 | 40 | 1015.1 |
| 20260503220724 | 59 | 210 | 0.0 | 6.0 | 0.00 | 0.00 | 0.00 | 41 | 1015.1 |
| 20260503220242 | 59 | 240 | 2.0 | 6.0 | 0.00 | 0.00 | 0.00 | 39 | 1015.1 |
| 20260503215720 | 59 | 242 | 1.0 | 3.0 | 0.00 | 0.00 | 0.00 | 40 | 1015.0 |
| 20260503215215 | 60 | 253 | 1.0 | 4.0 | 0.00 | 0.00 | 0.00 | 38 | 1015.0 |
| 20260503214711 | 60 | 259 | 1.0 | 6.0 | 0.00 | 0.00 | 0.00 | 39 | 1015.2 |
| 20260503214209 | 61 | 39 | 2.0 | 5.0 | 0.00 | 0.00 | 0.00 | 37 | 1015.1 |
| 20260503213727 | 61 | 250 | 1.0 | 3.0 | 0.00 | 0.00 | 0.00 | 36 | 1015.2 |
| 20260503213224 | 61 | 67 | 1.0 | 4.0 | 0.00 | 0.00 | 0.00 | 38 | 1015.1 |
| 20260503212723 | 61 | 262 | 2.0 | 4.0 | 0.00 | 0.00 | 0.00 | 36 | 1015.1 |
| 20260503212220 | 61 | 146 | 1.0 | 4.0 | 0.00 | 0.00 | 0.00 | 36 | 1015.1 |
| 20260503211717 | 62 | 273 | 1.0 | 4.0 | 0.00 | 0.00 | 0.00 | 34 | 1015.0 |
| 20260503211214 | 62 | 246 | 1.0 | 5.0 | 0.00 | 0.00 | 0.00 | 36 | 1015.1 |
| 20260503210712 | 62 | 274 | 1.0 | 7.0 | 0.00 | 0.00 | 0.00 | 30 | 1015.1 |
| 20260503210214 | 62 | 255 | 1.0 | 7.0 | 0.00 | 0.00 | 0.00 | 29 | 1015.2 |
| 20260503205712 | 62 | 293 | 0.0 | 5.0 | 0.00 | 0.00 | 0.00 | 31 | 1015.1 |
| 20260503205209 | 63 | 294 | 3.0 | 5.0 | 0.00 | 0.00 | 0.00 | 27 | 1015.3 |
| 20260503204707 | 64 | 255 | 1.0 | 6.0 | 0.00 | 0.00 | 0.00 | 30 | 1015.3 |
| 20260503204227 | 63 | 274 | 1.0 | 6.0 | 0.00 | 0.00 | 0.00 | 31 | 1015.2 |
| 20260503203725 | 64 | 204 | 1.0 | 7.0 | 0.00 | 0.00 | 0.00 | 29 | 1015.3 |
| 20260503203222 | 63 | 191 | 2.0 | 9.0 | 0.00 | 0.00 | 0.00 | 28 | 1015.3 |
| 20260503202740 | 64 | 265 | 2.0 | 9.0 | 0.00 | 0.00 | 0.00 | 29 | 1015.3 |
| 20260503202217 | 64 | 146 | 2.0 | 7.0 | 0.00 | 0.00 | 0.00 | 25 | 1015.3 |
| 20260503201714 | 65 | 292 | 2.0 | 5.0 | 0.00 | 0.00 | 0.00 | 23 | 1015.5 |
| 20260503201212 | 64 | 164 | 1.0 | 7.0 | 0.00 | 0.00 | 0.00 | 25 | 1015.4 |
| 20260503200730 | 64 | 63 | 1.0 | 7.0 | 0.00 | 0.00 | 0.00 | 27 | 1015.5 |
| 20260503200227 | 64 | 120 | 3.0 | 6.0 | 0.00 | 0.00 | 0.00 | 23 | 1015.5 |
| 20260503195725 | 63 | 146 | 1.0 | 7.0 | 0.00 | 0.00 | 0.00 | 24 | 1015.5 |
| 20260503195222 | 63 | 85 | 2.0 | 7.0 | 0.00 | 0.00 | 0.00 | 23 | 1015.6 |
| 20260503194720 | 63 | 224 | 2.0 | 7.0 | 0.00 | 0.00 | 0.00 | 23 | 1015.5 |
| 20260503194239 | 63 | 297 | 2.0 | 7.0 | 0.00 | 0.00 | 0.00 | 28 | 1015.7 |
| 20260503193726 | 64 | 51 | 2.0 | 6.0 | 0.00 | 0.00 | 0.00 | 24 | 1015.8 |
| 20260503193243 | 65 | 295 | 2.0 | 5.0 | 0.00 | 0.00 | 0.00 | 27 | 1015.9 |
| 20260503192720 | 65 | 256 | 1.0 | 4.0 | 0.00 | 0.00 | 0.00 | 26 | 1016.1 |
| 20260503192221 | 65 | 205 | 1.0 | 5.0 | 0.00 | 0.00 | 0.00 | 27 | 1016.1 |
| 20260503191718 | 65 | 285 | 2.0 | 5.0 | 0.00 | 0.00 | 0.00 | 23 | 1016.2 |
| 20260503190721 | 64 | 174 | 1.0 | 4.0 | 0.00 | 0.00 | 0.00 | 27 | 1016.1 |
| 20260503190218 | 63 | 201 | 1.0 | 4.0 | 0.00 | 0.00 | 0.00 | 28 | 1016.2 |
| 20260503185717 | 63 | 136 | 2.0 | 4.0 | 0.00 | 0.00 | 0.00 | 27 | 1016.1 |
| 20260503185214 | 64 | 80 | 1.0 | 4.0 | 0.00 | 0.00 | 0.00 | 26 | 1016.3 |
| 20260503184711 | 63 | 153 | 1.0 | 5.0 | 0.00 | 0.00 | 0.00 | 27 | 1016.2 |
| 20260503184249 | 63 | 234 | 1.0 | 5.0 | 0.00 | 0.00 | 0.00 | 27 | 1016.3 |
| 20260503183726 | 63 | 56 | 2.0 | 6.0 | 0.00 | 0.00 | 0.00 | 26 | 1016.3 |
| 20260503183243 | 63 | 265 | 2.0 | 8.0 | 0.00 | 0.00 | 0.00 | 29 | 1016.3 |
| 20260503182721 | 62 | 229 | 2.0 | 8.0 | 0.00 | 0.00 | 0.00 | 26 | 1016.4 |
| 20260503182218 | 62 | 105 | 2.0 | 6.0 | 0.00 | 0.00 | 0.00 | 26 | 1016.4 |
| 20260503181715 | 62 | 186 | 2.0 | 7.0 | 0.00 | 0.00 | 0.00 | 26 | 1016.7 |
| 20260503181213 | 62 | 41 | 3.0 | 7.0 | 0.00 | 0.00 | 0.00 | 26 | 1016.4 |
| 20260503180731 | 63 | 124 | 3.0 | 5.0 | 0.00 | 0.00 | 0.00 | 27 | 1016.5 |
| 20260503180248 | 63 | 237 | 1.0 | 4.0 | 0.00 | 0.00 | 0.00 | 27 | 1016.5 |
| 20260503175727 | 62 | 115 | 1.0 | 5.0 | 0.00 | 0.00 | 0.00 | 26 | 1016.6 |
| 20260503175224 | 62 | 220 | 3.0 | 5.0 | 0.00 | 0.00 | 0.00 | 26 | 1016.7 |
| 20260503174721 | 62 | 103 | 2.0 | 5.0 | 0.00 | 0.00 | 0.00 | 26 | 1016.7 |
| 20260503174241 | 62 | 71 | 1.0 | 8.0 | 0.00 | 0.00 | 0.00 | 27 | 1016.7 |
| 20260503173717 | 61 | 209 | 2.0 | 8.0 | 0.00 | 0.00 | 0.00 | 28 | 1016.7 |
| 20260503173215 | 60 | 285 | 1.0 | 3.0 | 0.00 | 0.00 | 0.00 | 30 | 1016.5 |
| 20260503172717 | 60 | 283 | 1.0 | 5.0 | 0.00 | 0.00 | 0.00 | 28 | 1016.8 |
| 20260503172215 | 62 | 243 | 1.0 | 5.0 | 0.00 | 0.00 | 0.00 | 29 | 1016.7 |
| 20260503171713 | 61 | 281 | 0.0 | 4.0 | 0.00 | 0.00 | 0.00 | 29 | 1016.7 |
| 20260503171212 | 61 | 140 | 0.0 | 9.0 | 0.00 | 0.00 | 0.00 | 31 | 1016.6 |
| 20260503170750 | 60 | 297 | 0.0 | 9.0 | 0.00 | 0.00 | 0.00 | 31 | 1016.6 |
| 20260503170226 | 61 | 231 | 1.0 | 7.0 | 0.00 | 0.00 | 0.00 | 29 | 1016.5 |
| 20260503160218 | 60 | 252 | 2.0 | 10.0 | 0.00 | 0.00 | 0.00 | 28 | 1016.7 |
| 20260503150717 | 59 | 63 | 0.0 | 1.0 | 0.00 | 0.00 | 0.00 | 30 | 1017.0 |
| 20260503150235 | 58 | 61 | 0.0 | 1.0 | 0.00 | 0.00 | 0.00 | 30 | 1016.9 |
| 20260503140228 | 51 | 223 | 0.0 | 3.0 | 0.00 | 0.00 | 0.00 | 35 | 1016.9 |
| 20260503131227 | 47 | 244 | 1.0 | 3.0 | 0.00 | 0.00 | 0.00 | 37 | 1016.4 |
| 20260503130725 | 47 | 214 | 0.0 | 5.0 | 0.00 | 0.00 | 0.00 | 38 | 1016.4 |
| 20260503130222 | 47 | 225 | 0.0 | 5.0 | 0.00 | 0.00 | 0.00 | 38 | 1016.4 |
| 20260503120221 | 45 | 252 | 0.0 | 1.0 | 0.00 | 0.00 | 0.00 | 42 | 1016.4 |
| 20260503110738 | 47 | 200 | 0.0 | 1.0 | 0.00 | 0.00 | 0.00 | 38 | 1016.5 |
| 20260503110214 | 47 | 198 | 0.0 | 4.0 | 0.00 | 0.00 | 0.00 | 38 | 1016.5 |
| 20260503100223 | 48 | 257 | 0.0 | 1.0 | 0.00 | 0.00 | 0.00 | 38 | 1016.9 |
| 20260503090226 | 46 | 205 | 0.0 | 4.0 | 0.00 | 0.00 | 0.00 | 42 | 1017.5 |
| 20260503081225 | 46 | 200 | 0.0 | 2.0 | 0.00 | 0.00 | 0.00 | 44 | 1018.0 |
| 20260503080723 | 46 | 293 | 0.0 | 0.0 | 0.00 | 0.00 | 0.00 | 45 | 1018.2 |
| 20260503080221 | 45 | 293 | 0.0 | 1.0 | 0.00 | 0.00 | 0.00 | 46 | 1018.1 |
| 20260503072723 | 49 | 295 | 0.0 | 1.0 | 0.00 | 0.00 | 0.00 | 41 | 1018.5 |
| 20260503072241 | 49 | 13 | 0.0 | 1.0 | 0.00 | 0.00 | 0.00 | 39 | 1018.5 |
| 20260503071717 | 49 | 243 | 0.0 | 1.0 | 0.00 | 0.00 | 0.00 | 40 | 1018.6 |
| 20260503071215 | 50 | 236 | 0.0 | 1.0 | 0.00 | 0.00 | 0.00 | 39 | 1018.6 |
| 20260503070712 | 50 | 236 | 0.0 | 2.0 | 0.00 | 0.00 | 0.00 | 38 | 1018.7 |
| 20260503070209 | 50 | 236 | 1.0 | 3.0 | 0.00 | 0.00 | 0.00 | 38 | 1018.8 |
| 20260503060244 | 47 | 243 | 0.0 | 0.0 | 0.00 | 0.00 | 0.00 | 54 | 1019.2 |
| 20260503054717 | 47 | 238 | 0.0 | 1.0 | 0.00 | 0.00 | 0.00 | 56 | 1019.3 |
| 20260503054215 | 48 | 238 | 0.0 | 1.0 | 0.00 | 0.00 | 0.00 | 56 | 1019.2 |
| 20260503053714 | 48 | 238 | 0.0 | 0.0 | 0.00 | 0.00 | 0.00 | 56 | 1019.1 |
| 20260503053211 | 48 | 238 | 0.0 | 0.0 | 0.00 | 0.00 | 0.00 | 54 | 1019.3 |
| 20260503052708 | 49 | 238 | 0.0 | 1.0 | 0.00 | 0.00 | 0.00 | 54 | 1019.2 |
| 20260503052207 | 49 | 238 | 0.0 | 1.0 | 0.00 | 0.00 | 0.00 | 55 | 1019.3 |
| 20260503051705 | 49 | 238 | 0.0 | 1.0 | 0.00 | 0.00 | 0.00 | 54 | 1019.3 |
| 20260503051207 | 49 | 238 | 0.0 | 0.0 | 0.00 | 0.00 | 0.00 | 54 | 1019.4 |
| 20260503050741 | 49 | 238 | 0.0 | 1.0 | 0.00 | 0.00 | 0.00 | 53 | 1019.4 |
| 20260503050221 | 50 | 238 | 0.0 | 1.0 | 0.00 | 0.00 | 0.00 | 52 | 1019.4 |
| 20260503045207 | 50 | 238 | 1.0 | 1.0 | 0.00 | 0.00 | 0.00 | 53 | 1019.3 |
| 20260503044724 | 50 | 238 | 0.0 | 1.0 | 0.00 | 0.00 | 0.00 | 53 | 1019.2 |
| 20260503044222 | 50 | 236 | 0.0 | 1.0 | 0.00 | 0.00 | 0.00 | 55 | 1019.3 |
| 20260503043740 | 49 | 235 | 0.0 | 1.0 | 0.00 | 0.00 | 0.00 | 56 | 1019.2 |
| 20260503043216 | 49 | 252 | 0.0 | 2.0 | 0.00 | 0.00 | 0.00 | 58 | 1019.2 |
| 20260503042713 | 49 | 238 | 0.0 | 2.0 | 0.00 | 0.00 | 0.00 | 59 | 1019.1 |
| 20260503042211 | 49 | 245 | 0.0 | 1.0 | 0.00 | 0.00 | 0.00 | 60 | 1019.0 |
| 20260503041729 | 48 | 247 | 0.0 | 0.0 | 0.00 | 0.00 | 0.00 | 62 | 1018.9 |
| 20260503041205 | 49 | 247 | 0.0 | 0.0 | 0.00 | 0.00 | 0.00 | 62 | 1018.8 |
| 20260503040724 | 49 | 247 | 0.0 | 1.0 | 0.00 | 0.00 | 0.00 | 62 | 1018.8 |
| 20260503040221 | 49 | 247 | 0.0 | 1.0 | 0.00 | 0.00 | 0.00 | 63 | 1018.9 |
| 20260503035720 | 49 | 247 | 0.0 | 1.0 | 0.00 | 0.00 | 0.00 | 63 | 1018.8 |
| 20260503035237 | 49 | 245 | 0.0 | 1.0 | 0.00 | 0.00 | 0.00 | 63 | 1018.8 |
| 20260503034734 | 49 | 248 | 0.0 | 1.0 | 0.00 | 0.00 | 0.00 | 63 | 1018.7 |
| 20260503034211 | 50 | 248 | 0.0 | 0.0 | 0.00 | 0.00 | 0.00 | 62 | 1018.6 |
| 20260503033709 | 50 | 248 | 0.0 | 2.0 | 0.00 | 0.00 | 0.00 | 62 | 1018.7 |
| 20260503033227 | 50 | 247 | 0.0 | 2.0 | 0.00 | 0.00 | 0.00 | 63 | 1018.6 |
| 20260503032707 | 50 | 239 | 0.0 | 1.0 | 0.00 | 0.00 | 0.00 | 62 | 1018.6 |
| 20260503032205 | 50 | 239 | 0.0 | 1.0 | 0.00 | 0.00 | 0.00 | 62 | 1018.5 |
| 20260503031724 | 50 | 239 | 0.0 | 1.0 | 0.00 | 0.00 | 0.00 | 62 | 1018.5 |
| 20260503031221 | 51 | 238 | 0.0 | 1.0 | 0.00 | 0.00 | 0.00 | 61 | 1018.5 |
| 20260503030718 | 51 | 239 | 0.0 | 1.0 | 0.00 | 0.00 | 0.00 | 61 | 1018.4 |
| 20260503030236 | 51 | 238 | 0.0 | 1.0 | 0.00 | 0.00 | 0.00 | 60 | 1018.3 |
| 20260503025714 | 51 | 238 | 0.0 | 1.0 | 0.00 | 0.00 | 0.00 | 60 | 1018.3 |
| 20260503025233 | 52 | 281 | 0.0 | 1.0 | 0.00 | 0.00 | 0.00 | 60 | 1018.1 |
| 20260503024730 | 52 | 281 | 0.0 | 1.0 | 0.00 | 0.00 | 0.00 | 60 | 1018.1 |
| 20260503024228 | 52 | 281 | 0.0 | 2.0 | 0.00 | 0.00 | 0.00 | 60 | 1018.2 |